Cosmos 1154 Rocket - Orbit

View from above orbital plane
View from above orbital plane
View from above satellite
View from above satellite

Ground track
Ground track

The orbit data is extracted from the following two-line orbital elements,

1 11683U 80008B   13168.47479268  .00013297  00000-0  22547-3 0   470
2 11683 081.1809 123.7905 0014166 265.0559 094.9071 15.51253761835423
Epoch (UTC): 17 June 2013 11:23:42
Eccentricity: 0.0014166
inclination: 81.1809°
perigee height: 403 km
apogee height: 422 km
right ascension of ascending node: 123.7905°
argument of perigee: 265.0559°
revolutions per day: 15.51253761
mean anomaly at epoch: 94.9071°
orbit number at epoch: 83542

The dashed part of the orbit path shows where the satellite is in the earth's shadow,  

Developed and maintained by Chris Peat, Heavens-Above GmbH. Please read the updated FAQ before sending e-mail. Imprint. DLR